Weather History for Dhahran, Saudi Arabia

Change the Weather History Date:

Tuesday, July 8, 2003

  Actual Average Record
Temperature  
Mean Temperature 96 °F -  
Max Temperature 109 °F 107 °F 120 °F (1997)
Min Temperature 84 °F 84 °F 82 °F (2011)
Cooling Degree Days 32    
Growing Degree Days 46 (Base 50)    
Moisture  
Dew Point 86 °F    
Average Humidity 81    
Maximum Humidity 100    
Minimum Humidity 58    
Precipitation  
Precipitation 0.00 in 0.00 in - ()
Sea Level Pressure  
Sea Level Pressure 29.38 in    
Wind  
Wind Speed 3 mph ()    
Max Wind Speed 9 mph    
Max Gust Speed -    
Visibility 3.0 miles    
Events Fog    
Averages and records for this station are not official NWS values.
T = Trace of Precipitation, MM = Missing Value Source: Averaged Metar Reports

Daily Weather History Graph

Daily Weather History Graph

Search for Another Location

Airport:

Trip Planner

Search our weather history database for the weather conditions in past years. The results will help you decide how hot, cold, wet, or windy it might be!

Date:

Astronomy

Jul. 08, 2003 Rise Set
Actual Time 4:52 AM AST 6:35 PM AST
Civil Twilight 4:27 AM AST 7:01 PM AST
Nautical Twilight 3:55 AM AST 7:32 PM AST
Astronomical Twilight 3:23 AM AST 8:05 PM AST
Moon 1:03 PM AST (7/8) 12:00 AM AST (7/8)
Length of Visible Light 14h 34m
Length of Day
13h 42m
Waxing Gibbous, 64% of the Moon is Illuminated
Jul 8
Waxing Gibbous
Jul 13
Full
Jul 21
Last Quarter
Jul 29
New
Aug 5
First Quarter

Hourly Weather History & Observations

Time (AST) Temp. Heat Index Dew Point Humidity Pressure Visibility Wind Dir Wind Speed Gust Speed Precip Events Conditions
12:00 AM 87.8 °F 115.4 °F 86.0 °F 94% 29.39 in - South 4.6 mph - N/A   Clear
1:00 AM 86.0 °F 111.5 °F 86.0 °F 100% 29.36 in 3.1 mi Calm Calm - N/A   Clear
2:00 AM 86.0 °F 111.5 °F 86.0 °F 100% 29.36 in - Calm Calm - N/A   Unknown
3:00 AM 86.0 °F 111.5 °F 86.0 °F 100% 29.36 in 0.0 mi Calm Calm - N/A Fog Fog
4:00 AM 84.2 °F 103.5 °F 84.2 °F 100% 29.36 in 0.0 mi Calm Calm - N/A Fog Fog
5:00 AM 86.0 °F 111.5 °F 86.0 °F 100% 29.39 in 0.5 mi West 2.3 mph - N/A Fog Fog
6:00 AM 86.0 °F 107.7 °F 84.2 °F 94% 29.39 in 0.5 mi West 2.3 mph - N/A Fog Fog
7:00 AM 89.6 °F 111.1 °F 82.4 °F 79% 29.42 in - WNW 5.8 mph - N/A Fog Fog
8:00 AM 89.6 °F 108.2 °F 80.6 °F 75% 29.42 in 1.9 mi West 5.8 mph - N/A   Haze
9:00 AM 95.0 °F 123.7 °F 84.2 °F 71% 29.42 in 5.0 mi Calm Calm - N/A   Haze
10:00 AM 100.4 °F 146.0 °F 89.6 °F 71% 29.42 in 5.0 mi Variable 3.5 mph - N/A   Clear
11:00 AM 102.2 °F 162.9 °F 93.2 °F 76% 29.42 in 3.7 mi ESE 8.1 mph - N/A   Clear
12:00 PM 104.0 °F 165.0 °F 93.2 °F 72% 29.39 in 5.0 mi East 6.9 mph - N/A   Clear
1:00 PM 107.6 °F 175.9 °F 95.0 °F 68% 29.39 in 5.0 mi ENE 6.9 mph - N/A   Clear
2:00 PM 109.4 °F 164.4 °F 91.4 °F 58% 29.36 in 5.0 mi ENE 6.9 mph - N/A   Clear
3:00 PM 109.4 °F 164.4 °F 91.4 °F 58% 29.36 in - East 9.2 mph - N/A   Clear
4:00 PM 105.8 °F 174.5 °F 95.0 °F 72% 29.36 in 3.1 mi ENE 5.8 mph - N/A   Haze
5:00 PM 100.4 °F 153.7 °F 91.4 °F 76% 29.36 in 2.5 mi ENE 6.9 mph - N/A   Haze
6:00 PM 96.8 °F 142.1 °F 89.6 °F 80% 29.36 in 2.5 mi ENE 5.8 mph - N/A   Clear
7:00 PM 95.0 °F 133.8 °F 87.8 °F 80% 29.36 in 1.9 mi East 5.8 mph - N/A   Clear
8:00 PM 95.0 °F 133.8 °F 87.8 °F 80% 29.36 in 3.1 mi East 4.6 mph - N/A   Clear
9:00 PM 95.0 °F 133.8 °F 87.8 °F 80% 29.39 in 3.7 mi Variable 3.5 mph - N/A   Clear
10:00 PM 93.2 °F 130.3 °F 87.8 °F 84% 29.39 in 4.3 mi Variable 3.5 mph - N/A   Clear
11:00 PM 93.2 °F 130.3 °F 87.8 °F 84% 29.39 in 4.3 mi Calm Calm - N/A   Clear